                ,  0.937,  1.134,  1.331,  1.528,  1.725,  1.922,  2.119,  2.316,  2.513,  2.711,  2.908,  3.105,  3.302,  3.499,  3.696,  3.893,  4.090,  4.287,  4.484,  4.681,  4.878,  5.076,  5.273,  5.470,  5.667,  5.864,  6.061,  6.258,  6.455,  6.652,  6.849,  7.046,  7.243,  7.441,  7.638,  7.835,  8.032,  8.229,  8.426,  8.623,  8.820,  9.017,  9.214,  9.411,  9.608,  9.806
2000/04/15 00:00,  999.0,  999.0,  999.0,  999.0,  999.0,  999.0,  999.0,  999.0,  999.0,  999.0,  999.0,  999.0,  999.0,  999.0,  999.0,  999.0,  999.0,  999.0,  999.0,  999.0,  999.0,  999.0,  999.0,  999.0,  999.0,  999.0,  999.0,  999.0,  999.0,  999.0,  999.0,  999.0,  999.0,  999.0,  999.0,  999.0,  999.0,  999.0,  999.0,  999.0,  999.0,  999.0,  999.0,  999.0,  999.0,  999.0
2000/04/15 00:10,  999.0,    5.3,    5.9,  999.0,  999.0,  999.0,  999.0,   12.0,  999.0,  999.0,  999.0,  999.0,  999.0,  999.0,   14.7,  999.0,  999.0,   12.3,   12.9,   13.0,   13.0,   13.4,   15.1,   15.7,   18.3,   20.1,   26.7,   31.1,   34.0,   36.4,   40.6,   43.9,   44.7,   45.2,   46.0,   46.7,   47.2,   47.7,   48.1,   48.1,  999.0,  999.0,  999.0,  999.0,  999.0,  999.0
2000/04/15 00:20,    1.1,    4.9,    5.5,    7.9,    7.2,    8.9,  999.0,  999.0,  999.0,  999.0,  999.0,  999.0,  999.0,   14.6,   14.5,   14.9,   12.9,   13.0,   12.7,   12.8,  999.0,  999.0,  999.0,   16.7,   20.3,   22.2,   26.2,   30.3,   33.8,   38.2,   40.6,   42.9,   44.3,   45.4,   45.8,   46.5,   46.9,   47.6,   48.3,   48.1,   49.1,   48.6,  999.0,  999.0,  999.0,  999.0
2000/04/15 00:30,  999.0,  999.0,  999.0,  999.0,  999.0,  999.0,  999.0,  999.0,  999.0,  999.0,  999.0,  999.0,  999.0,   16.0,  999.0,   12.1,   12.4,   12.4,   12.4,  999.0,  999.0,   12.4,  999.0,   17.4,   21.9,   23.5,   27.2,   30.6,   34.5,   38.4,   40.6,   42.5,   43.6,   44.3,   45.5,   45.7,  999.0,  999.0,  999.0,  999.0,  999.0,  999.0,  999.0,  999.0,  999.0,  999.0
2000/04/15 00:40,  999.0,  999.0,    6.2,  999.0,  999.0,  999.0,   10.9,  999.0,  999.0,  999.0,    9.8,  999.0,   13.2,   13.4,   12.0,   12.9,   14.0,   12.4,   13.0,   12.5,   12.0,  999.0,   12.9,   18.0,   23.2,   24.2,   27.1,   30.4,   34.6,   37.6,   41.2,   43.6,   43.1,  999.0,  999.0,  999.0,  999.0,  999.0,  999.0,  999.0,  999.0,  999.0,  999.0,  999.0,  999.0,  999.0
2000/04/15 00:50,  999.0,  999.0,    6.1,  999.0,  999.0,   12.4,  999.0,   10.6,   10.3,  999.0,  999.0,   12.9,   12.8,   12.9,    7.8,   11.3,   13.5,   13.2,   12.6,   11.8,   11.3,  999.0,   13.0,   17.9,   24.3,   25.5,   27.3,   31.2,   35.7,   40.3,  999.0,  999.0,  999.0,  999.0,  999.0,  999.0,  999.0,  999.0,  999.0,  999.0,  999.0,  999.0,  999.0,  999.0,  999.0,  999.0
2000/04/15 01:00,  999.0,  999.0,    5.6,  999.0,  999.0,  999.0,  999.0,   11.4,    9.6,   10.6,   11.6,    9.9,   12.2,   13.2,   13.0,   11.8,   12.4,   12.4,   12.1,   11.2,   10.3,   10.2,   14.2,   17.9,   23.6,   25.4,   27.8,   32.1,  999.0,  999.0,   42.7,   43.0,   44.9,   47.4,   49.0,   48.8,   48.8,   49.8,  999.0,  999.0,  999.0,  999.0,  999.0,  999.0,  999.0,  999.0
2000/04/15 01:10,  999.0,  999.0,    5.6,  999.0,  999.0,  999.0,  999.0,  999.0,  999.0,  999.0,   10.0,  999.0,   11.8,   12.4,   13.2,   11.7,   10.4,   10.3,   11.3,   10.9,   10.2,   10.6,   14.0,   17.9,   23.5,   26.0,   28.1,   32.5,   39.3,   42.7,   43.3,   44.4,   46.1,   46.6,   46.4,   47.0,   48.7,   49.8,   50.5,   51.2,   50.4,   49.3,  999.0,  999.0,  999.0,  999.0
2000/04/15 01:20,  999.0,    3.4,  999.0,  999.0,  999.0,  999.0,  999.0,    9.5,  999.0,  999.0,    9.3,    9.0,  999.0,   12.1,   10.0,    8.1,   10.4,   11.8,   11.4,   10.7,  999.0,   12.1,   13.6,   19.5,   25.2,   27.0,   29.4,   34.0,   39.7,   42.6,   44.1,   44.5,   45.2,   46.2,   45.5,   46.7,   46.7,   48.0,   48.9,   49.3,   50.4,   51.8,  999.0,  999.0,  999.0,  999.0
2000/04/15 01:30,  999.0,  999.0,    5.8,  999.0,  999.0,  999.0,   10.4,   11.3,    8.3,  999.0,    8.7,  999.0,   10.8,   12.3,   11.7,   12.3,   10.8,  999.0,   10.6,   10.6,   10.3,   12.2,   14.4,   21.8,   25.0,   27.3,   30.0,   35.7,   40.1,   42.8,   44.1,   44.5,   45.0,   45.1,   45.3,   46.1,   47.1,   49.5,   50.0,   50.8,   53.7,  999.0,  999.0,  999.0,  999.0,  999.0
2000/04/15 01:40,  999.0,  999.0,    5.8,  999.0,  999.0,  999.0,  999.0,  999.0,  999.0,  999.0,    8.8,    9.8,   10.9,   11.4,   11.2,   11.9,   11.1,   11.0,   10.6,   10.1,   11.2,   12.4,   15.8,   20.7,   24.2,   26.1,   30.5,   36.6,   40.4,   41.7,   42.9,   43.8,   44.9,  999.0,  999.0,  999.0,  999.0,  999.0,  999.0,   54.3,   55.1,   54.2,  999.0,  999.0,  999.0,  999.0
2000/04/15 01:50,  999.0,  999.0,    5.7,  999.0,  999.0,  999.0,  999.0,  999.0,  999.0,  999.0,    8.8,    9.8,   10.9,   11.2,   11.5,   11.4,   10.9,   10.2,    9.2,    9.8,   11.3,   11.8,   15.1,   20.8,   23.7,   28.0,   32.5,   38.1,   41.4,   42.0,   43.0,   43.5,   44.0,   44.7,   45.3,   47.3,   49.4,   50.3,   52.5,   54.5,   54.5,   52.1,   52.3,  999.0,  999.0,  999.0
2000/04/15 02:00,  999.0,  999.0,  999.0,  999.0,  999.0,    9.1,  999.0,    8.8,    8.4,    8.5,  999.0,    8.8,   10.8,   11.0,  999.0,    9.3,    8.9,    8.6,    8.9,   10.4,   10.9,   12.8,   14.3,   20.4,   23.4,   27.8,   31.9,   37.4,   41.2,   42.6,   43.7,   43.9,   44.5,   44.7,   45.8,   46.9,   48.0,   49.7,   52.0,   52.9,   53.2,   53.9,   55.0,   54.4,  999.0,   57.0
2000/04/15 02:10,  999.0,  999.0,  999.0,    9.6,  999.0,  999.0,    9.8,    9.3,  999.0,    8.4,    8.9,    8.0,    9.7,    9.8,    8.8,    8.6,    9.0,    8.6,    8.2,    8.9,   10.1,   12.5,   15.2,   20.0,   22.9,   27.4,   33.5,   39.5,   42.4,   43.7,   44.4,   45.2,   46.8,   47.8,   47.7,   47.6,   48.1,   48.8,   50.3,   51.0,   51.3,   52.8,   53.2,   54.9,   55.4,   55.7
2000/04/15 02:20,  999.0,  999.0,  999.0,  999.0,  999.0,    9.0,    9.4,    8.5,    8.9,    9.3,    9.7,   10.2,   10.8,   10.5,   10.3,    9.4,    8.6,    8.9,    7.9,  999.0,    9.0,   12.2,   15.3,   19.5,   23.1,   27.2,   32.8,   38.1,   40.7,   41.6,   41.8,   42.8,   43.5,   44.4,   45.2,  999.0,   48.4,   48.0,   48.4,  999.0,   49.3,   50.9,   52.5,   53.9,   54.8,   55.5
2000/04/15 02:30,  999.0,  999.0,  999.0,  999.0,  999.0,    8.7,  999.0,  999.0,    9.0,    9.5,    9.4,   10.5,   10.7,   10.2,   10.4,   10.5,    9.1,    8.2,    8.1,    8.8,   10.5,   13.4,   15.8,   18.6,   22.7,   26.3,   31.5,   37.0,   41.1,   42.4,   42.7,   43.8,   44.3,   44.1,   44.2,   44.9,   44.4,   45.6,   45.9,   48.1,   49.3,   50.3,   52.7,   53.0,   54.8,   55.3
2000/04/15 02:40,  999.0,  999.0,  999.0,  999.0,  999.0,  999.0,   10.2,    8.5,    8.8,    9.4,    9.9,   11.0,   12.0,   11.1,   11.1,   10.5,    8.9,    7.3,  999.0,  999.0,   10.3,   13.8,  999.0,   18.2,   22.1,   25.9,   30.9,   36.4,   41.1,   42.1,   42.5,   42.7,   42.9,   43.8,   45.6,   47.0,   47.1,   47.6,   48.1,   48.5,   48.6,   49.3,   49.6,   50.5,   52.4,   53.5
2000/04/15 02:50,  999.0,  999.0,    6.3,    7.4,   12.4,   10.2,   10.4,    9.5,    9.0,    9.6,   10.3,    9.9,    9.4,    9.7,   11.2,    9.8,    9.0,    7.6,    6.5,    7.7,   10.1,   13.1,  999.0,  999.0,   20.4,   25.9,   31.4,   36.9,   40.6,   41.7,   42.3,   43.6,   44.3,   45.2,   45.7,   45.6,   45.7,   46.2,   46.5,   46.6,   46.3,   46.3,   48.0,   49.2,   51.3,   54.3
2000/04/15 03:00,  999.0,    1.1,  999.0,  999.0,  999.0,    9.8,   10.3,    9.5,    8.8,   10.3,  999.0,  999.0,   10.7,   10.8,    9.9,   10.4,    8.8,    6.7,    5.8,    7.3,  999.0,   13.0,   15.5,  999.0,   19.1,   27.0,   34.3,   39.9,   42.2,   44.0,   45.1,   45.4,   45.1,   44.9,   45.8,   46.7,   47.5,   47.5,   45.9,   46.5,   46.4,   46.3,   47.2,   47.9,   49.9,   52.6
2000/04/15 03:10,  999.0,    3.5,  999.0,    7.5,  999.0,    9.6,   10.4,    9.8,    9.2,   10.4,   13.0,   12.9,   11.6,   10.8,    8.3,    7.3,    6.0,    5.8,  999.0,    8.0,   10.5,   14.2,   16.5,   19.0,   24.4,   32.3,   36.3,   40.3,   42.9,   44.5,   44.9,   45.5,   46.0,   46.1,  999.0,   47.2,   45.9,   44.7,   44.3,   45.2,   45.7,   46.0,   46.3,   44.5,   46.4,   48.8
2000/04/15 03:20,  999.0,  999.0,  999.0,    7.7,  999.0,    9.3,    9.4,    8.6,    7.5,   10.3,    9.6,    6.2,    5.0,    3.4,    2.7,    3.2,  999.0,    5.1,    8.2,  999.0,   14.4,   17.3,   18.4,   20.8,   27.9,   34.1,   37.1,   39.6,   41.6,   43.5,   45.0,   46.2,   46.6,   46.0,   46.9,   46.6,   44.2,   43.5,   42.8,   43.3,   43.0,   44.3,   44.0,   47.4,   46.4,  999.0
2000/04/15 03:30,  999.0,  999.0,  999.0,    7.3,    6.3,    8.2,    8.0,    5.5,  999.0,    4.2,    4.1,    4.1,    4.1,    5.4,    5.7,    5.5,    4.9,    5.4,  999.0,   13.8,   15.3,   21.5,   21.1,   23.2,   27.2,   31.3,   35.2,   38.2,   40.0,   42.1,   43.7,   42.9,   43.0,   44.1,   46.2,   46.8,   46.0,   44.1,   42.9,   43.5,   43.1,  999.0,  999.0,  999.0,  999.0,  999.0
2000/04/15 03:40,  999.0,  999.0,    9.3,    7.9,    6.6,    6.2,    7.7,  999.0,    7.4,    6.8,    7.1,    8.2,    8.1,    7.8,    5.3,    4.5,    4.0,    3.3,  999.0,   11.8,   17.3,   22.0,   24.5,   26.3,   28.0,   30.0,   35.9,   39.7,   40.1,   39.9,   42.9,   43.3,   42.4,   43.7,   45.8,   46.1,   46.2,   46.4,   44.5,   43.5,   43.4,   43.3,   46.2,  999.0,  999.0,  999.0
2000/04/15 03:50,   -0.2,    2.2,    7.2,    7.2,  999.0,  999.0,  999.0,    5.4,    4.3,    6.4,    6.4,    7.1,    6.6,    7.8,    5.6,    5.2,    5.5,    5.1,    5.7,   12.6,   18.7,   21.9,   24.4,   27.4,   30.6,   35.4,   38.4,   42.1,   42.9,   43.7,   43.7,   44.0,  999.0,   43.8,   44.5,   44.9,   44.7,   43.7,   44.3,   45.1,   44.9,   44.9,  999.0,  999.0,  999.0,  999.0
2000/04/15 04:00,  999.0,    2.4,  999.0,    6.8,    3.7,    5.3,    3.5,    4.9,    6.0,    7.5,    7.3,    6.9,    6.6,  999.0,  999.0,  999.0,  999.0,    3.7,    5.7,   11.2,   17.2,   21.1,   24.5,   28.4,   31.5,   35.3,   38.5,  999.0,   43.6,   43.3,   42.8,   42.3,   42.0,   42.9,   42.9,   44.2,   46.2,   44.2,   42.2,   42.1,   42.9,   44.2,   46.2,  999.0,  999.0,  999.0
2000/04/15 04:10,  999.0,    2.0,  999.0,    6.5,    6.3,    5.3,    4.7,    4.9,    6.7,  999.0,    5.0,    4.3,  999.0,    3.2,    3.3,    4.1,    3.5,  999.0,  999.0,   12.6,   18.2,   22.3,   25.9,   29.5,   33.4,  999.0,   41.3,   43.1,   43.5,   42.9,   43.1,   42.2,   42.9,   43.5,   43.9,   44.7,   44.7,   45.2,   44.0,   41.8,   42.4,   43.8,   45.8,   47.7,   50.7,   52.3
2000/04/15 04:20,  999.0,  999.0,  999.0,    5.8,    6.2,  999.0,    4.6,    5.5,  999.0,    4.7,    4.0,    3.8,    3.3,    3.3,  999.0,  999.0,  999.0,    2.8,    6.7,   12.2,   18.9,   23.5,   27.7,   31.0,   34.6,   38.0,   40.3,   41.4,   41.2,   42.1,   43.1,   42.2,   42.5,   42.1,   44.1,   44.6,   43.8,   43.1,   43.3,   43.7,   45.4,   46.3,   47.8,   49.0,   50.4,   52.2
2000/04/15 04:30,  999.0,   -2.3,  999.0,  999.0,    6.0,    5.7,    5.6,  999.0,  999.0,    4.3,    5.1,    3.9,    3.7,  999.0,    2.5,    2.7,    3.0,    2.8,    8.6,   16.1,   20.8,   24.5,   27.6,   30.7,   33.5,   36.9,  999.0,   40.1,   41.8,   41.5,   41.5,   41.8,   42.6,   43.9,   42.9,   40.9,   43.1,   44.4,   46.2,   46.4,   48.3,   49.7,   51.5,   52.4,   53.2,   53.5
2000/04/15 04:40,  999.0,  999.0,    2.1,  999.0,    5.7,    6.0,    6.2,    5.8,    6.7,    5.8,  999.0,    5.2,  999.0,    4.4,  999.0,    3.6,    2.3,    2.2,    7.7,   15.9,   20.3,   24.2,   26.9,   29.2,   32.8,   35.7,   36.7,   37.1,   37.3,   38.2,   40.9,   43.8,   43.8,   42.4,   42.7,   44.2,   44.8,   45.8,   45.8,  999.0,  999.0,  999.0,  999.0,  999.0,  999.0,  999.0
2000/04/15 04:50,  999.0,    1.1,  999.0,    5.3,    5.6,  999.0,    6.1,    5.2,    6.2,    5.8,  999.0,  999.0,    4.1,    4.5,    4.0,    3.1,    1.7,    2.9,    6.4,   15.5,   22.7,   27.6,   30.7,   32.8,   35.0,   36.7,   37.1,   37.1,   37.3,   37.2,   37.5,   38.3,   38.3,   40.9,   42.6,   44.6,   45.7,   46.7,   47.3,   48.5,   48.6,   49.1,  999.0,  999.0,  999.0,  999.0
2000/04/15 05:00,  999.0,  999.0,  999.0,  999.0,    7.0,    6.9,    5.2,    5.2,    6.1,    5.4,  999.0,    5.8,    4.7,    5.5,    4.7,    4.7,  999.0,    3.8,    6.3,   11.9,   17.4,   24.2,   32.1,   33.3,   34.8,   37.1,   37.9,   38.2,   37.9,   38.1,   39.3,   40.7,   41.8,   42.6,   43.2,   43.3,   43.9,   44.0,   44.9,   45.5,   45.6,   45.1,   45.4,   46.9,  999.0,  999.0
2000/04/15 05:10,   -1.4,  999.0,  999.0,    5.3,    7.4,    6.4,    7.0,    6.3,    6.9,    5.4,    6.6,    6.2,    5.1,    4.5,    3.0,  999.0,    0.7,  999.0,    7.0,   12.3,   19.1,   27.3,   32.1,   33.6,   35.1,   37.3,   39.5,   40.5,   41.1,   41.7,   42.1,   42.5,   43.3,   43.8,   43.5,   44.1,   45.4,  999.0,   43.6,   43.2,  999.0,  999.0,  999.0,  999.0,  999.0,  999.0
2000/04/15 05:20,  999.0,  999.0,  999.0,    5.5,    9.5,    6.1,    4.7,    7.4,    7.3,    6.4,    4.2,    5.8,    4.4,    5.3,    5.0,    3.9,    4.1,    4.9,    8.4,   15.7,   22.7,   28.2,   31.5,   34.0,   36.1,   38.9,   40.5,   41.5,   42.6,   44.7,   46.0,   47.4,  999.0,   45.9,   45.8,  999.0,  999.0,  999.0,  999.0,  999.0,  999.0,  999.0,  999.0,  999.0,  999.0,  999.0
2000/04/15 05:30,   -3.9,  999.0,  999.0,  999.0,  999.0,    7.5,    4.8,    4.7,    2.0,    2.2,    2.0,    3.6,    4.1,    4.1,    2.1,    2.9,    1.9,    2.8,    9.2,   17.3,   23.3,   28.6,   32.1,   34.4,   37.4,   39.9,   41.8,   43.6,   44.3,   44.7,   44.9,   45.7,   45.4,   46.3,   44.7,   45.1,   48.5,  999.0,  999.0,  999.0,  999.0,  999.0,  999.0,  999.0,  999.0,  999.0
2000/04/15 05:40,  999.0,  999.0,  999.0,  999.0,    2.9,    5.1,    6.0,    5.6,    5.4,    4.4,    4.6,    4.5,  999.0,  999.0,  999.0,  999.0,    2.5,    5.0,   11.1,   18.9,   23.5,   28.0,   31.4,   34.0,   36.7,   39.1,   42.8,   45.5,   44.7,   43.3,   44.3,   43.1,   43.5,   44.0,   45.1,   44.5,  999.0,  999.0,  999.0,  999.0,  999.0,  999.0,  999.0,  999.0,  999.0,  999.0
2000/04/15 05:50,  999.0,  999.0,  999.0,  999.0,    3.9,  999.0,    5.4,    4.6,    4.2,    4.7,    4.7,    4.4,    3.8,    3.4,    3.3,    3.4,    5.0,    6.9,   12.7,   17.7,   21.8,   26.8,   32.3,   35.9,   38.0,   39.4,   43.5,   46.2,   46.3,   44.7,   43.4,   43.1,   43.9,   44.1,   44.1,   46.0,   47.1,  999.0,  999.0,  999.0,  999.0,  999.0,  999.0,  999.0,  999.0,  999.0
2000/04/15 06:00,  999.0,  999.0,  999.0,    1.9,  999.0,    3.6,    5.2,    4.8,  999.0,    2.6,  999.0,    2.6,    2.3,    3.5,  999.0,    4.2,    4.8,  999.0,   11.0,   16.4,   21.2,  999.0,   34.9,   38.5,   40.7,   42.0,   43.1,   43.9,   44.2,   44.0,   43.5,   43.9,   43.7,   44.0,   44.8,   46.7,  999.0,  999.0,  999.0,  999.0,  999.0,   50.1,   51.2,   49.0,  999.0,  999.0
2000/04/15 06:10,  999.0,  999.0,   -1.4,    1.4,    3.5,    2.2,    3.8,    4.6,    4.0,    3.3,    3.9,    3.0,    3.2,  999.0,  999.0,    3.4,    3.9,    5.2,   11.8,   16.6,   22.2,   29.7,   36.7,   41.0,   43.9,   44.7,   44.5,   44.0,   43.9,   43.2,   43.2,   43.7,   44.6,   45.6,   45.6,   46.0,   42.9,   45.6,   47.0,   47.4,   47.0,   47.3,  999.0,  999.0,  999.0,  999.0
2000/04/15 06:20,  999.0,   -4.7,   -3.8,    2.0,    4.2,    1.3,    1.4,  999.0,  999.0,  999.0,  999.0,  999.0,  999.0,  999.0,    4.2,    4.5,    3.3,    3.9,    9.0,   13.7,   22.7,   31.8,   37.0,   40.5,   42.4,   43.2,   44.1,   43.5,   43.1,   43.1,   43.1,   43.8,   42.5,   43.8,   45.4,   45.8,   44.8,   45.5,   44.5,   44.7,   43.9,   45.1,  999.0,  999.0,  999.0,  999.0
2000/04/15 06:30,   -2.7,   -3.2,   -1.5,    1.3,    3.3,    2.8,    3.0,    3.6,    5.8,    6.8,    6.5,    6.5,    3.9,    3.8,    2.5,    1.8,    2.9,    1.8,    5.4,   11.9,   18.3,   23.8,   29.9,  999.0,   36.2,   37.5,   39.0,   41.0,   43.3,   41.3,   42.7,   43.4,   43.0,   42.9,   42.9,   42.5,   43.8,   45.4,   44.4,   43.5,   43.2,   42.8,   46.1,   45.1,  999.0,  999.0
2000/04/15 06:40,   -3.0,   -3.7,    0.4,    2.3,    2.1,    3.0,    4.6,    6.0,    2.5,    6.5,    4.1,    3.6,    3.7,    2.8,    6.2,    3.1,    2.2,    2.9,    6.7,   14.8,   20.5,   25.6,   31.1,   35.7,   37.8,   40.1,   41.4,   41.6,   41.8,   41.7,   41.5,   41.1,   41.4,   41.6,   42.4,   40.6,   40.2,   41.0,   41.4,   40.3,   41.4,   43.3,  999.0,  999.0,  999.0,  999.0
2000/04/15 06:50,   -3.0,   -2.6,   -0.9,   -0.5,   -0.3,   -1.2,    1.8,    2.5,    1.6,    2.1,    1.2,    2.6,    3.9,    2.4,    2.6,    2.4,    2.9,    5.1,    7.2,   12.1,   21.4,   25.7,   29.3,   32.8,   35.7,   36.0,   36.9,   37.3,   37.4,   37.1,   38.0,   39.6,   40.0,   39.4,   37.9,   37.9,   37.1,   38.3,   41.1,   41.2,   42.2,   42.4,  999.0,  999.0,  999.0,  999.0
2000/04/15 07:00,   -4.3,   -4.1,   -3.0,   -1.2,   -0.2,    0.3,    0.9,   -0.1,   -1.9,   -3.9,    1.9,  999.0,    2.9,  999.0,    1.7,    1.6,    2.7,    4.2,    7.3,   13.7,   21.5,   26.3,   29.8,   31.2,   32.0,   35.8,   37.8,   38.7,   39.7,   39.7,   41.0,   39.7,   40.1,   39.7,   38.6,   40.2,   40.4,   40.4,  999.0,  999.0,  999.0,  999.0,  999.0,  999.0,  999.0,  999.0
2000/04/15 07:10,   -3.2,   -3.3,   -3.9,   -1.3,  999.0,   -0.2,    0.5,    0.3,    0.9,    0.5,   -0.2,   -1.2,  999.0,    0.6,    1.1,    1.2,    2.9,    3.6,    7.3,   16.1,   21.3,   25.6,   28.9,   31.9,   34.6,   36.0,   36.6,   36.7,   37.3,   38.4,   39.2,   39.6,   38.6,   38.0,   36.6,   38.7,   38.8,   39.4,   41.5,   40.9,   41.0,  999.0,  999.0,  999.0,  999.0,  999.0
2000/04/15 07:20,   -3.0,   -1.3,   -1.6,   -0.5,    0.1,    0.5,   -0.4,  999.0,    2.1,    0.8,  999.0,  999.0,    2.0,    1.4,    0.9,    2.2,    3.9,    4.6,    7.8,   11.9,   18.0,   22.3,   26.4,   30.7,   33.6,   35.0,   35.3,   35.8,   35.8,   35.5,   35.0,   34.8,   34.5,   34.8,   36.2,   36.9,   36.5,   37.2,   38.6,   40.0,   38.5,  999.0,  999.0,  999.0,  999.0,  999.0
2000/04/15 07:30,   -2.2,   -1.2,    0.2,    0.7,    0.3,    0.2,   -0.1,   -0.1,   -0.2,   -0.3,    0.9,    0.1,    0.9,    1.7,  999.0,    2.4,    4.6,    4.7,    7.4,    9.6,   15.9,   21.1,   27.4,   33.4,   38.0,   40.1,   40.9,   40.7,   40.5,   40.1,   39.8,   39.3,   38.9,   38.1,   37.3,   37.3,   36.6,   36.1,   35.0,   35.6,   36.8,  999.0,  999.0,  999.0,  999.0,  999.0
2000/04/15 07:40,   -2.0,    0.9,    1.9,    2.7,    2.8,    2.2,    2.9,  999.0,    1.0,    0.3,  999.0,  999.0,    2.5,    3.0,  999.0,  999.0,  999.0,  999.0,    7.7,   10.4,   18.1,   24.5,   32.3,   36.9,   38.7,   39.1,   39.8,   39.7,   39.3,   39.2,   39.9,   40.3,   39.6,   38.5,   36.0,   34.6,   34.5,   35.8,  999.0,  999.0,  999.0,  999.0,  999.0,  999.0,  999.0,  999.0
2000/04/15 07:50,   -2.1,    0.3,    1.4,    1.0,    0.8,  999.0,    4.2,  999.0,  999.0,  999.0,  999.0,  999.0,  999.0,    1.3,    2.6,    4.1,    6.3,    7.3,   10.2,   14.0,   19.8,   25.1,   34.3,   36.7,   37.9,   38.6,   38.6,   39.7,   40.3,   39.8,  999.0,  999.0,  999.0,  999.0,  999.0,  999.0,  999.0,  999.0,  999.0,  999.0,  999.0,  999.0,  999.0,  999.0,  999.0,  999.0
2000/04/15 08:00,   -2.6,    0.1,    1.2,    1.2,    0.3,    0.7,  999.0,  999.0,  999.0,  999.0,  999.0,    1.6,    1.3,    1.3,  999.0,  999.0,  999.0,    6.9,    9.5,   14.2,   20.1,   26.7,   32.8,   35.7,   35.8,   37.7,   38.3,   39.5,  999.0,  999.0,  999.0,  999.0,  999.0,  999.0,  999.0,  999.0,  999.0,  999.0,  999.0,  999.0,  999.0,  999.0,  999.0,  999.0,  999.0,  999.0
2000/04/15 08:10,   -1.8,  999.0,  999.0,  999.0,  999.0,  999.0,  999.0,  999.0,  999.0,  999.0,  999.0,  999.0,  999.0,  999.0,  999.0,    4.0,    4.8,    6.8,   11.7,   18.2,   24.0,   30.1,   34.4,   35.4,   36.1,   35.6,   37.1,   38.1,   38.6,  999.0,  999.0,  999.0,  999.0,  999.0,  999.0,  999.0,  999.0,  999.0,  999.0,  999.0,  999.0,  999.0,  999.0,  999.0,  999.0,  999.0
2000/04/15 08:20,   -2.5,   -1.9,   -1.9,   -1.0,  999.0,  999.0,  999.0,  999.0,  999.0,    0.2,  999.0,    0.4,    1.1,    0.8,    2.7,    5.0,    4.6,    7.0,   11.4,   18.1,   23.9,   29.3,   32.1,   34.7,   35.6,   35.4,   36.7,   37.9,   38.1,  999.0,   37.2,   37.9,  999.0,  999.0,   37.0,   36.1,   37.7,   39.0,   41.3,  999.0,  999.0,  999.0,  999.0,  999.0,  999.0,  999.0
2000/04/15 08:30,   -2.3,  999.0,  999.0,  999.0,  999.0,   -0.9,   -0.4,  999.0,    1.1,  999.0,  999.0,  999.0,  999.0,  999.0,  999.0,  999.0,    3.4,    6.3,    8.8,   14.2,   19.6,   26.0,   29.6,   33.2,   33.8,   34.7,   35.4,   37.5,   37.3,   36.9,   37.1,   36.8,   37.5,   37.5,   36.8,   39.1,   39.9,   39.6,   39.9,   41.2,   43.3,  999.0,  999.0,  999.0,  999.0,  999.0
2000/04/15 08:40,   -1.7,   -2.6,   -2.3,   -1.8,  999.0,  999.0,   -0.6,  999.0,  999.0,  999.0,    3.6,  999.0,    3.0,    3.4,    4.2,  999.0,  999.0,    7.1,    9.5,   14.0,   18.8,   23.9,   31.0,   35.0,   36.7,   38.0,   38.0,   37.2,   37.0,   36.9,   38.1,   39.1,   38.7,   38.1,   36.4,   35.9,   36.3,   37.7,  999.0,  999.0,  999.0,  999.0,  999.0,  999.0,  999.0,  999.0
2000/04/15 08:50,   -1.8,   -2.8,   -2.5,   -2.5,  999.0,   -0.9,   -0.9,  999.0,    0.4,    2.6,  999.0,    2.3,    2.8,    3.0,    2.8,  999.0,  999.0,    7.2,   11.1,   13.9,   17.9,   25.2,   31.3,   32.4,   33.1,   34.6,   37.0,   38.2,  999.0,  999.0,   38.4,   39.1,   39.2,   39.2,   39.8,   39.1,   37.8,   39.3,   39.0,   40.9,   41.5,  999.0,  999.0,  999.0,  999.0,  999.0
2000/04/15 09:00,   -1.5,   -2.9,   -3.7,   -1.8,   -1.0,  999.0,  999.0,   -1.3,    1.2,    1.1,    0.8,    1.4,  999.0,    1.9,    2.0,  999.0,  999.0,    6.8,   11.0,   13.6,   19.0,  999.0,   30.1,   32.3,   33.8,   34.9,   36.4,   38.1,   36.7,   37.5,   38.6,   38.8,   39.4,   39.7,   40.7,   40.3,   40.3,   40.1,   40.0,   39.3,   39.3,   39.5,   40.6,  999.0,  999.0,  999.0
2000/04/15 09:10,   -1.2,   -2.3,   -3.2,   -1.1,   -1.5,  999.0,   -0.9,    0.0,  999.0,  999.0,    1.2,    2.4,    3.1,  999.0,  999.0,  999.0,  999.0,    7.9,   10.8,   13.0,   18.6,   24.1,   29.2,   32.7,   35.8,   36.7,   37.4,   39.2,   39.4,   39.5,   40.0,   40.1,   40.1,   40.4,   40.4,   40.1,   40.1,   39.6,   38.4,   37.9,   38.0,  999.0,  999.0,  999.0,  999.0,  999.0
2000/04/15 09:20,   -2.1,   -3.1,   -2.8,   -0.2,   -0.6,   -0.6,   -0.0,    0.9,    1.8,    1.8,    1.3,  999.0,  999.0,  999.0,  999.0,  999.0,  999.0,  999.0,   10.9,   12.8,   18.2,   25.0,   31.3,   35.8,   39.1,   41.5,   42.9,   43.5,   42.3,   42.4,   41.7,   41.2,   40.3,   39.0,   39.2,  999.0,  999.0,  999.0,  999.0,  999.0,  999.0,  999.0,  999.0,  999.0,  999.0,  999.0
2000/04/15 09:30,   -3.0,   -3.0,   -1.3,   -0.4,    0.1,   -0.5,   -0.7,  999.0,    1.6,    1.0,    1.9,  999.0,  999.0,  999.0,    3.1,    3.3,    6.2,    8.5,   10.8,   12.7,   19.3,   27.4,   32.2,   34.9,   37.3,   39.1,   40.1,   40.7,   42.1,   40.2,   38.8,  999.0,   37.8,  999.0,  999.0,  999.0,  999.0,  999.0,  999.0,  999.0,  999.0,  999.0,  999.0,  999.0,  999.0,  999.0
2000/04/15 09:40,   -2.6,   -2.7,   -0.6,   -0.4,   -1.4,   -1.2,  999.0,  999.0,    1.4,    1.5,  999.0,  999.0,  999.0,    3.2,    3.1,    4.7,    7.4,    9.6,   12.2,   15.5,   22.3,   28.0,   32.8,   35.3,   36.4,   38.3,   38.8,   39.6,   41.2,   41.7,   41.4,   41.5,  999.0,  999.0,  999.0,  999.0,  999.0,  999.0,  999.0,  999.0,  999.0,  999.0,  999.0,  999.0,  999.0,  999.0
2000/04/15 09:50,   -3.0,   -1.0,    0.4,   -1.1,   -1.8,  999.0,    0.0,    1.2,    1.2,    1.6,  999.0,    1.8,    2.7,    3.4,    3.8,  999.0,  999.0,    9.8,   13.0,   18.2,   24.5,   29.9,   33.7,   35.8,   37.2,   39.0,   38.5,   39.4,   40.9,   41.6,   42.9,   41.6,   40.4,   38.8,   38.0,   38.4,   38.7,  999.0,  999.0,  999.0,  999.0,  999.0,  999.0,  999.0,  999.0,  999.0
2000/04/15 10:00,   -3.1,   -0.5,   -1.1,   -1.6,   -2.0,  999.0,  999.0,  999.0,    0.5,    1.0,    1.1,    1.5,    2.6,    2.8,    4.7,  999.0,  999.0,  999.0,   13.7,   21.7,   25.8,   30.0,  999.0,   36.3,   38.7,   40.3,   40.6,   40.0,   41.4,   41.1,   42.1,   42.5,   41.6,   40.3,   39.2,   37.8,   38.6,   38.5,   38.7,  999.0,  999.0,  999.0,  999.0,  999.0,  999.0,  999.0
2000/04/15 10:10,   -2.9,    0.3,   -0.9,   -1.9,   -2.0,  999.0,  999.0,   -0.3,   -0.4,    0.6,    1.0,    2.0,    2.2,    3.8,  999.0,  999.0,  999.0,   11.3,   16.9,   22.4,   24.7,   26.9,   30.0,   31.7,   32.8,   34.3,   35.1,   35.2,   35.7,   36.8,   34.6,   34.8,   35.0,   34.4,   34.5,   35.2,   36.5,   36.4,   36.8,   36.9,   38.4,  999.0,  999.0,  999.0,  999.0,  999.0
2000/04/15 10:20,   -3.3,    0.2,   -1.3,   -2.9,   -2.4,  999.0,  999.0,   -0.6,  999.0,    0.2,    0.9,    2.4,    2.1,  999.0,  999.0,  999.0,    9.9,   12.1,   19.5,   22.3,   23.7,   25.2,   26.7,   28.3,   31.6,   33.5,   32.5,   34.6,   35.7,   36.1,   36.1,   34.2,   33.6,   32.9,   33.7,   34.0,  999.0,  999.0,  999.0,   36.5,   38.1,  999.0,  999.0,  999.0,  999.0,  999.0
2000/04/15 10:30,   -3.7,   -1.0,   -1.7,   -3.0,   -2.0,  999.0,  999.0,   -1.6,   -1.0,   -0.6,    1.0,    1.7,    2.0,  999.0,  999.0,    8.7,   10.3,   15.7,   20.2,   22.6,   23.8,   25.9,   28.9,   32.9,   34.9,   36.3,   37.1,   37.5,   38.1,   39.1,   39.4,   39.2,   37.8,   36.0,   35.0,   35.0,  999.0,  999.0,  999.0,  999.0,  999.0,  999.0,  999.0,  999.0,  999.0,  999.0
2000/04/15 10:40,   -4.9,   -1.7,   -2.7,   -3.6,   -3.5,  999.0,  999.0,   -1.6,   -1.2,  999.0,    0.5,    1.4,    1.9,    5.7,  999.0,  999.0,   10.6,   16.7,   19.4,   20.8,   23.3,  999.0,   30.0,   32.0,   33.2,   34.6,   35.3,   35.7,   35.4,   34.9,   35.2,   35.3,   36.8,   36.6,   36.9,   36.0,   37.0,  999.0,  999.0,  999.0,  999.0,  999.0,  999.0,  999.0,  999.0,  999.0
2000/04/15 10:50,   -4.7,   -2.3,   -3.1,   -2.6,   -3.0,   -2.0,  999.0,   -1.3,   -1.4,   -0.3,    0.3,    0.9,  999.0,  999.0,  999.0,    9.4,   12.3,   17.7,   20.5,   22.2,   24.2,   26.7,   29.6,   32.1,   33.6,   34.9,   33.8,   33.9,   34.2,   34.9,   35.7,   35.4,   35.0,   34.6,   33.6,   34.1,   33.5,   34.6,   35.1,   35.5,   36.8,  999.0,  999.0,  999.0,  999.0,  999.0
2000/04/15 11:00,   -3.8,   -2.5,   -3.2,   -3.3,   -3.8,   -2.5,   -2.5,   -1.4,   -1.4,   -0.5,    0.0,    1.9,  999.0,  999.0,  999.0,  999.0,  999.0,   17.2,   19.3,   20.8,   22.6,   25.9,   29.8,   33.0,  999.0,  999.0,  999.0,  999.0,   20.3,   10.6,  999.0,   34.0,   34.2,   32.4,   31.9,  999.0,   17.1,   32.3,  999.0,  999.0,  999.0,  999.0,  999.0,  999.0,  999.0,  999.0
2000/04/15 11:10,   -3.3,   -2.7,   -2.5,   -2.7,   -3.8,   -3.5,   -3.0,   -1.5,   -0.9,   -0.8,    0.6,  999.0,  999.0,  999.0,    6.5,    9.5,   14.3,   16.4,   19.1,   21.9,   24.0,   29.9,   31.9,   33.1,   33.9,   34.1,  999.0,  999.0,  999.0,  999.0,  999.0,  999.0,  999.0,  999.0,  999.0,  999.0,  999.0,  999.0,  999.0,  999.0,  999.0,  999.0,  999.0,  999.0,  999.0,  999.0
2000/04/15 11:20,   -3.7,   -2.7,   -2.3,   -1.5,   -2.8,   -2.3,   -2.5,  999.0,  999.0,  999.0,  999.0,  999.0,  999.0,    5.3,    6.7,    8.1,   12.9,   15.3,   18.3,   21.4,   25.7,   29.6,   30.8,   29.9,   30.0,   30.4,   31.1,   33.3,   33.9,  999.0,  999.0,  999.0,  999.0,  999.0,  999.0,  999.0,  999.0,  999.0,  999.0,   37.2,  999.0,  999.0,  999.0,  999.0,  999.0,  999.0
2000/04/15 11:30,  999.0,   -3.2,   -2.5,   -1.5,   -1.9,   -3.5,  999.0,  999.0,  999.0,  999.0,  999.0,  999.0,  999.0,  999.0,  999.0,    8.0,   11.5,   14.4,   16.5,   19.8,   24.0,   28.4,   30.5,   30.3,   30.6,   30.8,   31.4,   33.3,   32.5,   33.0,   33.1,   33.4,  999.0,  999.0,  999.0,  999.0,   33.1,   33.0,   33.7,   35.8,   35.8,   37.1,  999.0,  999.0,  999.0,  999.0
2000/04/15 11:40,  999.0,  999.0,   -2.0,   -1.3,   -1.9,  999.0,  999.0,  999.0,  999.0,  999.0,  999.0,  999.0,  999.0,  999.0,  999.0,    8.2,   11.1,   13.8,   15.0,   18.6,   22.4,   25.2,   28.1,   29.7,   31.6,  999.0,  999.0,   32.5,   33.3,   33.6,   32.3,   32.1,   34.1,   33.8,   34.5,   35.2,   34.5,   34.9,   35.3,   36.1,   36.9,   36.9,  999.0,  999.0,  999.0,  999.0
2000/04/15 11:50,   -3.4,   -3.2,   -1.2,   -1.3,   -1.3,  999.0,  999.0,  999.0,  999.0,    4.1,    5.0,    5.4,  999.0,  999.0,  999.0,  999.0,   12.2,   14.7,   15.1,   17.3,   21.3,   23.5,   26.1,   28.5,   29.6,   30.6,   31.1,   30.7,   31.1,   32.0,   33.5,   33.3,   33.8,   34.1,   33.4,   34.0,   34.3,   35.4,   37.1,   37.7,   39.3,  999.0,  999.0,  999.0,  999.0,  999.0
2000/04/15 12:00,   -3.2,   -3.6,   -1.6,   -1.7,   -1.6,  999.0,  999.0,  999.0,  999.0,    4.6,  999.0,    7.6,  999.0,  999.0,  999.0,  999.0,   14.8,  999.0,   16.0,   17.7,   19.6,   21.9,   25.0,   29.2,   32.8,   33.3,   35.4,   36.1,   35.8,   35.6,   34.6,   35.6,   34.5,   34.7,   34.0,   34.3,   33.5,   34.9,   35.2,  999.0,  999.0,  999.0,  999.0,  999.0,  999.0,  999.0
2000/04/15 12:10,   -4.0,   -3.3,   -2.1,   -2.0,   -1.0,  999.0,  999.0,  999.0,  999.0,  999.0,  999.0,  999.0,    9.6,   13.3,   15.1,   15.9,   15.0,   14.9,   15.8,   18.5,   20.2,   25.5,   31.1,   33.8,   36.5,   39.4,   40.2,   39.0,   38.4,   37.6,   36.8,   35.9,   35.1,   33.9,   34.4,   33.3,   34.6,  999.0,  999.0,  999.0,  999.0,  999.0,  999.0,  999.0,  999.0,  999.0
2000/04/15 12:20,   -4.2,   -3.9,   -2.8,   -2.9,   -2.2,    0.1,  999.0,  999.0,  999.0,    7.0,    6.8,    9.0,   13.1,   14.4,   15.2,   14.9,   14.6,   15.1,   16.0,   19.0,   22.9,   28.2,   31.6,   33.7,   34.5,   36.7,   35.7,   34.2,   35.4,   35.8,   36.4,   32.8,  999.0,  999.0,  999.0,  999.0,  999.0,  999.0,  999.0,  999.0,  999.0,  999.0,  999.0,  999.0,  999.0,  999.0
2000/04/15 12:30,   -4.9,   -4.1,   -3.8,   -3.2,   -2.2,    0.3,  999.0,  999.0,  999.0,  999.0,  999.0,   10.7,  999.0,  999.0,  999.0,  999.0,   16.2,   15.8,   18.1,   21.1,   25.9,   29.4,   32.3,   33.1,   33.9,   36.1,  999.0,   34.4,   35.9,   35.9,   34.0,   34.9,  999.0,  999.0,  999.0,  999.0,  999.0,  999.0,  999.0,  999.0,  999.0,  999.0,  999.0,  999.0,  999.0,  999.0
2000/04/15 12:40,   -4.8,   -5.4,   -5.3,   -3.6,   -2.0,    0.6,  999.0,  999.0,  999.0,  999.0,    7.5,   11.6,   13.5,   13.7,   14.7,  999.0,   17.4,   19.3,   20.3,   22.2,   23.5,   25.8,   27.2,   28.8,   29.7,   31.3,   32.0,   33.8,   34.9,   35.9,   33.8,   34.0,   32.1,   33.6,   34.2,  999.0,   36.3,   37.2,   38.4,  999.0,   40.4,  999.0,  999.0,  999.0,  999.0,  999.0
2000/04/15 12:50,   -4.7,   -6.0,   -6.6,   -4.8,   -2.5,    1.2,    1.6,  999.0,  999.0,    6.6,    8.9,  999.0,  999.0,   14.5,   15.7,   17.6,   18.1,   18.4,   19.3,   20.4,   21.5,   24.9,   27.3,   29.4,   32.0,   33.4,   33.3,   34.8,   33.9,   34.4,   35.3,   38.4,   35.6,   37.3,   38.5,   38.7,   37.4,   37.8,   38.4,   40.0,   38.8,   41.7,   41.3,  999.0,  999.0,  999.0
2000/04/15 13:00,   -3.9,   -5.0,   -6.3,   -5.0,   -1.6,    0.3,  999.0,  999.0,    3.6,  999.0,    9.0,   12.8,  999.0,  999.0,   16.4,  999.0,   16.4,   17.9,   19.4,   20.3,   22.2,   24.5,   27.3,   28.1,   28.2,   29.1,   29.7,   29.8,   29.2,  999.0,   34.0,  999.0,  999.0,  999.0,  999.0,  999.0,  999.0,  999.0,  999.0,  999.0,  999.0,  999.0,  999.0,  999.0,  999.0,  999.0
2000/04/15 13:10,   -5.5,  999.0,  999.0,   -5.2,   -2.8,    1.2,  999.0,  999.0,  999.0,  999.0,  999.0,  999.0,  999.0,  999.0,  999.0,  999.0,   16.9,   18.4,   20.0,   21.0,   23.4,   26.6,   27.8,   28.5,   28.5,   31.6,   31.4,   32.3,   31.5,  999.0,  999.0,  999.0,  999.0,  999.0,  999.0,  999.0,  999.0,  999.0,  999.0,  999.0,  999.0,  999.0,  999.0,  999.0,  999.0,  999.0
2000/04/15 13:20,   -5.5,   -5.9,   -4.8,   -5.4,   -1.8,    0.8,    1.1,  999.0,  999.0,  999.0,  999.0,  999.0,   14.5,   16.1,   15.9,   15.9,   16.5,   18.6,   19.6,   20.2,   20.8,   24.0,   27.3,   28.5,   29.4,   28.9,   28.6,   30.9,  999.0,  999.0,  999.0,  999.0,  999.0,  999.0,  999.0,  999.0,  999.0,  999.0,  999.0,  999.0,  999.0,  999.0,  999.0,  999.0,  999.0,  999.0
2000/04/15 13:30,  999.0,   -5.3,   -4.7,   -4.1,   -1.9,    0.9,    0.7,  999.0,  999.0,    8.5,   11.8,   13.8,  999.0,   15.7,   15.6,   15.3,   16.4,   19.3,   19.0,   20.2,   20.3,   23.4,   26.4,   27.5,   26.9,   24.7,   25.8,   27.8,  999.0,  999.0,  999.0,  999.0,  999.0,  999.0,  999.0,  999.0,  999.0,  999.0,  999.0,  999.0,  999.0,  999.0,  999.0,  999.0,  999.0,  999.0
2000/04/15 13:40,   -5.4,   -5.1,   -4.0,   -3.8,   -1.1,    0.9,    1.3,    3.6,  999.0,    9.6,   13.1,   13.9,   13.8,   14.6,   15.3,   16.9,   18.2,   19.4,   20.2,   21.6,   23.6,   28.1,   30.0,   29.1,   26.5,   25.4,  999.0,  999.0,  999.0,  999.0,  999.0,  999.0,  999.0,  999.0,  999.0,  999.0,  999.0,  999.0,  999.0,  999.0,  999.0,  999.0,  999.0,  999.0,  999.0,  999.0
2000/04/15 13:50,   -5.6,   -4.9,   -4.6,   -3.8,   -1.6,    0.2,    2.5,  999.0,  999.0,   10.2,  999.0,  999.0,   14.1,   15.1,   16.9,   17.7,   18.2,   19.2,   21.8,   24.6,   26.1,   29.5,   28.6,   28.1,   27.6,   28.8,  999.0,  999.0,  999.0,  999.0,  999.0,  999.0,  999.0,  999.0,  999.0,  999.0,  999.0,  999.0,  999.0,  999.0,  999.0,  999.0,  999.0,  999.0,  999.0,  999.0
2000/04/15 14:00,   -6.4,  999.0,  999.0,   -2.6,   -0.7,    0.3,    1.2,    4.4,    6.5,   11.1,   12.3,   13.6,   14.3,   15.7,   16.0,   17.1,   17.4,   18.7,   22.0,   26.0,   27.4,   28.6,   29.0,   29.3,   29.4,   30.4,  999.0,  999.0,  999.0,  999.0,  999.0,  999.0,  999.0,  999.0,  999.0,  999.0,  999.0,  999.0,  999.0,  999.0,  999.0,  999.0,  999.0,  999.0,  999.0,  999.0
2000/04/15 14:10,   -3.9,   -3.1,   -3.6,   -2.5,   -0.6,    1.1,    0.5,    3.4,    7.2,   12.1,   13.0,   13.1,   14.7,   14.9,   14.4,   16.4,   17.9,   19.0,   22.9,   25.7,   25.1,   23.9,   24.0,   25.9,   28.1,   27.3,   31.9,   32.4,  999.0,   34.2,  999.0,  999.0,  999.0,  999.0,  999.0,  999.0,  999.0,  999.0,  999.0,  999.0,  999.0,  999.0,  999.0,  999.0,  999.0,  999.0
2000/04/15 14:20,   -4.2,   -4.2,   -4.5,   -3.1,  999.0,  999.0,    1.5,    4.3,    6.9,   11.0,  999.0,  999.0,  999.0,  999.0,   14.0,   16.5,   18.3,   18.7,   18.5,   18.6,   19.7,   22.3,   23.2,   23.1,   24.0,   25.3,   25.2,   27.5,   27.4,  999.0,  999.0,  999.0,  999.0,  999.0,  999.0,  999.0,  999.0,  999.0,  999.0,  999.0,  999.0,  999.0,  999.0,  999.0,  999.0,  999.0
2000/04/15 14:30,   -5.1,   -4.6,   -4.5,   -4.6,   -1.1,    1.3,  999.0,  999.0,    7.1,   10.9,   10.3,  999.0,   13.3,   13.8,   16.4,   17.4,   18.6,   20.6,   18.3,   19.0,   23.6,  999.0,  999.0,   22.6,   24.6,  999.0,  999.0,  999.0,  999.0,  999.0,  999.0,  999.0,  999.0,  999.0,  999.0,  999.0,  999.0,  999.0,  999.0,  999.0,  999.0,  999.0,  999.0,  999.0,  999.0,  999.0
2000/04/15 14:40,   -5.2,   -4.6,   -3.5,   -3.1,   -1.2,    1.7,    2.3,    4.8,    8.1,   10.1,   11.1,   12.9,   13.7,   14.6,   16.9,   17.2,   18.5,   19.2,   19.2,   20.2,   24.4,   25.1,   24.8,   23.7,   25.1,  999.0,  999.0,  999.0,  999.0,  999.0,  999.0,  999.0,  999.0,  999.0,  999.0,  999.0,  999.0,  999.0,  999.0,  999.0,  999.0,  999.0,  999.0,  999.0,  999.0,  999.0
2000/04/15 14:50,   -2.0,   -4.9,  999.0,   -0.7,   -0.3,    1.8,    2.3,    5.3,    8.8,    9.7,   11.7,   13.3,   13.7,   15.1,   17.3,   17.3,   18.0,   18.9,   19.4,   20.7,   22.6,   23.2,   23.5,   24.6,  999.0,  999.0,  999.0,  999.0,  999.0,  999.0,  999.0,  999.0,  999.0,  999.0,  999.0,  999.0,  999.0,  999.0,  999.0,  999.0,  999.0,  999.0,  999.0,  999.0,  999.0,  999.0
2000/04/15 15:00,   -4.9,   -4.8,   -3.7,   -2.2,   -1.0,    1.3,    1.7,    4.3,    8.9,    8.9,   11.8,  999.0,  999.0,   15.2,   16.8,   16.6,   17.9,  999.0,   19.1,   22.0,   23.3,   23.3,   25.3,   27.2,  999.0,  999.0,  999.0,  999.0,  999.0,  999.0,  999.0,  999.0,  999.0,  999.0,  999.0,  999.0,  999.0,  999.0,  999.0,  999.0,  999.0,  999.0,  999.0,  999.0,  999.0,  999.0
2000/04/15 15:10,   -4.2,   -4.3,   -4.1,   -2.6,   -1.4,    1.6,    1.8,    3.5,    7.8,    8.5,   10.9,   12.7,   13.5,   15.8,   17.0,   16.9,   17.1,   17.9,   18.7,   21.4,   22.6,   23.9,   25.6,   27.1,  999.0,  999.0,  999.0,  999.0,  999.0,  999.0,  999.0,  999.0,  999.0,  999.0,  999.0,  999.0,  999.0,  999.0,  999.0,  999.0,  999.0,  999.0,  999.0,  999.0,  999.0,  999.0
2000/04/15 15:20,  999.0,   -4.0,   -3.3,  999.0,   -0.4,  999.0,    1.8,    4.5,    7.9,    8.9,   11.1,   13.2,   14.2,   16.8,   16.7,   16.7,   17.4,   17.9,   19.9,   22.3,   23.3,   24.4,   26.2,   28.4,  999.0,  999.0,  999.0,  999.0,  999.0,  999.0,  999.0,  999.0,  999.0,  999.0,  999.0,  999.0,  999.0,  999.0,  999.0,  999.0,  999.0,  999.0,  999.0,  999.0,  999.0,  999.0
2000/04/15 15:30,   -3.4,   -3.8,   -3.6,   -1.6,    0.1,    0.6,    1.2,    4.8,    8.0,    8.9,   11.2,   12.8,   14.1,   16.1,   16.1,   15.9,   17.0,   18.4,   20.5,   22.4,   24.2,   24.8,   27.4,   27.6,  999.0,  999.0,  999.0,  999.0,  999.0,  999.0,  999.0,  999.0,  999.0,  999.0,  999.0,  999.0,  999.0,  999.0,  999.0,  999.0,  999.0,  999.0,  999.0,  999.0,  999.0,  999.0
2000/04/15 15:40,   -2.5,   -3.7,   -3.5,   -0.9,    0.9,    0.6,    1.6,    5.4,    8.5,    9.2,   11.2,   12.2,   13.3,   15.5,   14.9,   15.4,   15.6,   18.3,   21.1,   23.9,   23.8,   25.2,   27.6,  999.0,  999.0,  999.0,  999.0,  999.0,  999.0,  999.0,  999.0,  999.0,  999.0,  999.0,  999.0,  999.0,  999.0,  999.0,  999.0,  999.0,  999.0,  999.0,  999.0,  999.0,  999.0,  999.0
2000/04/15 15:50,  999.0,   -3.9,   -3.3,  999.0,  999.0,    0.6,    2.2,    5.4,    8.8,    9.4,   10.7,   11.7,   13.0,   15.6,   15.5,   15.6,   15.9,   18.0,   20.3,   21.7,   22.8,   24.4,  999.0,  999.0,  999.0,  999.0,  999.0,  999.0,  999.0,  999.0,  999.0,  999.0,  999.0,  999.0,  999.0,  999.0,  999.0,  999.0,  999.0,  999.0,  999.0,  999.0,  999.0,  999.0,  999.0,  999.0
2000/04/15 16:00,   -2.6,   -3.4,   -2.0,   -0.4,    1.5,    1.3,    2.6,    6.8,  999.0,    9.4,  999.0,   12.5,   13.3,   15.7,   15.7,   16.0,   16.1,   17.7,   20.1,   21.0,   22.7,   24.1,   26.8,  999.0,  999.0,  999.0,  999.0,  999.0,  999.0,  999.0,  999.0,  999.0,  999.0,  999.0,  999.0,  999.0,  999.0,  999.0,  999.0,  999.0,  999.0,  999.0,  999.0,  999.0,  999.0,  999.0
2000/04/15 16:10,   -2.3,   -3.2,   -2.0,   -0.3,    1.6,    1.8,    3.0,    7.0,    9.2,    9.9,   11.3,   12.4,   13.8,   15.7,   15.5,   16.0,   16.6,   16.7,   19.8,   20.5,   22.7,   21.7,   25.0,  999.0,  999.0,  999.0,  999.0,  999.0,  999.0,  999.0,  999.0,  999.0,  999.0,  999.0,  999.0,  999.0,  999.0,  999.0,  999.0,  999.0,  999.0,  999.0,  999.0,  999.0,  999.0,  999.0
2000/04/15 16:20,   -2.5,   -3.2,   -2.2,   -0.3,    1.5,    2.1,    2.9,    7.2,    9.0,   10.3,   11.5,   12.5,   14.3,   16.2,   15.8,   16.5,   16.7,   17.9,   20.5,   22.6,   23.5,   23.2,   26.8,  999.0,  999.0,  999.0,  999.0,  999.0,  999.0,  999.0,  999.0,  999.0,  999.0,  999.0,  999.0,  999.0,  999.0,  999.0,  999.0,  999.0,  999.0,  999.0,  999.0,  999.0,  999.0,  999.0
2000/04/15 16:30,   -2.4,  999.0,  999.0,  999.0,  999.0,    0.9,    3.1,    7.4,    9.1,   10.9,   12.0,   12.7,   14.6,   16.4,   15.9,   16.5,   16.4,   18.4,   20.8,   22.8,   23.1,   25.3,   28.5,  999.0,  999.0,  999.0,  999.0,  999.0,  999.0,  999.0,  999.0,  999.0,  999.0,  999.0,  999.0,  999.0,  999.0,  999.0,  999.0,  999.0,  999.0,  999.0,  999.0,  999.0,  999.0,  999.0
2000/04/15 16:40,   -2.3,   -2.8,  999.0,  999.0,   -0.5,    1.0,    4.1,    7.6,    9.6,   10.5,   12.1,   13.1,   14.8,   15.7,   15.6,   16.4,   16.5,   20.3,   22.2,   23.5,   24.7,   28.0,  999.0,  999.0,  999.0,  999.0,  999.0,  999.0,  999.0,  999.0,  999.0,  999.0,  999.0,  999.0,  999.0,  999.0,  999.0,  999.0,  999.0,  999.0,  999.0,  999.0,  999.0,  999.0,  999.0,  999.0
2000/04/15 16:50,   -2.7,   -2.2,   -2.4,   -1.3,    0.3,    1.9,    5.1,    8.3,   10.6,   10.9,   11.9,   12.4,   14.4,   15.4,   14.9,   14.8,   17.3,   21.2,   23.4,   23.8,   27.3,  999.0,  999.0,  999.0,  999.0,  999.0,  999.0,  999.0,  999.0,  999.0,  999.0,  999.0,  999.0,  999.0,  999.0,  999.0,  999.0,  999.0,  999.0,  999.0,  999.0,  999.0,  999.0,  999.0,  999.0,  999.0
2000/04/15 17:00,   -2.1,   -2.5,   -2.4,   -0.7,    0.7,    2.2,    5.1,  999.0,   11.4,   11.0,   11.9,   12.3,   14.3,   15.9,   15.1,   15.1,   16.8,   21.9,   23.9,   24.7,   27.0,  999.0,  999.0,  999.0,  999.0,  999.0,  999.0,  999.0,  999.0,  999.0,  999.0,  999.0,  999.0,  999.0,  999.0,  999.0,  999.0,  999.0,  999.0,  999.0,  999.0,  999.0,  999.0,  999.0,  999.0,  999.0
2000/04/15 17:10,  999.0,   -2.4,   -1.9,   -0.5,  999.0,  999.0,  999.0,  999.0,  999.0,   10.7,   11.9,   12.7,   14.4,   16.2,   15.7,   15.3,   16.9,   20.0,   22.9,   24.2,   26.2,  999.0,  999.0,  999.0,  999.0,  999.0,  999.0,  999.0,  999.0,  999.0,  999.0,  999.0,  999.0,  999.0,  999.0,  999.0,  999.0,  999.0,  999.0,  999.0,  999.0,  999.0,  999.0,  999.0,  999.0,  999.0
2000/04/15 17:20,   -2.0,  999.0,  999.0,  999.0,  999.0,    1.6,  999.0,    8.5,   11.3,   10.7,   12.0,   13.3,   14.7,   15.9,   15.1,   15.2,   17.9,   20.9,   23.6,   23.8,   26.1,  999.0,  999.0,  999.0,  999.0,  999.0,  999.0,  999.0,  999.0,  999.0,  999.0,  999.0,  999.0,  999.0,  999.0,  999.0,  999.0,  999.0,  999.0,  999.0,  999.0,  999.0,  999.0,  999.0,  999.0,  999.0
2000/04/15 17:30,   -2.4,   -3.0,   -2.7,   -1.7,   -0.2,    2.3,    5.3,    8.5,   11.1,   10.7,   12.0,   13.4,   14.2,   15.7,   15.2,   15.1,   16.9,   21.6,   24.4,   23.6,  999.0,  999.0,  999.0,  999.0,  999.0,  999.0,  999.0,  999.0,  999.0,  999.0,  999.0,  999.0,  999.0,  999.0,  999.0,  999.0,  999.0,  999.0,  999.0,  999.0,  999.0,  999.0,  999.0,  999.0,  999.0,  999.0
2000/04/15 17:40,   -1.7,   -2.3,   -2.5,   -1.5,   -0.2,    2.6,    5.9,    8.9,   11.0,   11.1,   12.1,   13.7,   14.2,   15.9,   15.9,   15.7,   16.8,   20.8,   23.6,   23.7,   25.1,  999.0,  999.0,  999.0,  999.0,  999.0,  999.0,  999.0,  999.0,  999.0,  999.0,  999.0,  999.0,  999.0,  999.0,  999.0,  999.0,  999.0,  999.0,  999.0,  999.0,  999.0,  999.0,  999.0,  999.0,  999.0
2000/04/15 17:50,   -1.4,   -1.6,   -1.4,   -0.9,    0.7,    3.4,    6.5,  999.0,   11.3,   11.4,   12.8,   14.2,   14.3,   15.7,   16.3,   16.8,   16.8,   20.0,   22.7,   23.2,   26.3,  999.0,  999.0,  999.0,  999.0,  999.0,  999.0,  999.0,  999.0,  999.0,  999.0,  999.0,  999.0,  999.0,  999.0,  999.0,  999.0,  999.0,  999.0,  999.0,  999.0,  999.0,  999.0,  999.0,  999.0,  999.0
2000/04/15 18:00,   -0.3,  999.0,  999.0,  999.0,  999.0,  999.0,    7.2,  999.0,   10.5,   11.7,   13.4,   14.6,   14.5,   15.3,   15.9,   15.6,   16.4,   20.1,   23.0,   23.6,   26.1,  999.0,  999.0,  999.0,  999.0,  999.0,  999.0,  999.0,  999.0,  999.0,  999.0,  999.0,  999.0,  999.0,  999.0,   47.0,  999.0,  999.0,  999.0,  999.0,  999.0,  999.0,  999.0,  999.0,  999.0,  999.0
2000/04/15 18:10,  999.0,  999.0,  999.0,  999.0,  999.0,    4.0,    6.3,  999.0,   10.8,   11.6,   13.4,   14.7,   14.7,   15.2,   15.7,   16.0,   16.5,   20.6,   22.9,   24.2,  999.0,  999.0,  999.0,  999.0,  999.0,  999.0,  999.0,  999.0,  999.0,  999.0,  999.0,  999.0,  999.0,  999.0,  999.0,   46.8,   48.7,  999.0,  999.0,  999.0,  999.0,  999.0,  999.0,  999.0,  999.0,  999.0
2000/04/15 18:20,   -0.8,  999.0,  999.0,  999.0,  999.0,  999.0,  999.0,  999.0,   10.3,   11.2,   13.7,   14.9,   15.5,   15.5,   15.0,   15.8,   18.0,   20.8,   22.6,   25.6,  999.0,  999.0,  999.0,  999.0,  999.0,  999.0,  999.0,  999.0,  999.0,  999.0,  999.0,  999.0,  999.0,  999.0,  999.0,   45.3,   50.5,   52.8,  999.0,  999.0,  999.0,  999.0,  999.0,  999.0,  999.0,  999.0
2000/04/15 18:30,   -0.1,   -1.1,   -1.4,   -1.0,    2.3,    4.2,    7.7,   10.1,   10.8,   11.8,   13.1,   15.8,   16.1,   16.5,   16.5,   16.2,   16.8,   19.6,   22.0,   24.8,  999.0,  999.0,  999.0,  999.0,  999.0,  999.0,  999.0,  999.0,  999.0,  999.0,  999.0,  999.0,  999.0,  999.0,  999.0,  999.0,   47.7,   52.5,  999.0,  999.0,  999.0,  999.0,  999.0,  999.0,  999.0,  999.0
2000/04/15 18:40,   -1.1,   -0.9,   -1.0,   -0.9,    1.6,   -0.4,    3.8,  999.0,  999.0,  999.0,   13.2,   15.1,   15.9,   15.9,   16.1,   15.6,   17.5,   21.2,   23.1,   24.6,  999.0,  999.0,  999.0,  999.0,  999.0,  999.0,  999.0,  999.0,  999.0,  999.0,  999.0,  999.0,  999.0,  999.0,  999.0,  999.0,  999.0,   52.1,   53.5,  999.0,  999.0,  999.0,  999.0,  999.0,  999.0,  999.0
2000/04/15 18:50,   -0.4,   -1.1,   -0.8,   -1.0,    1.0,    3.6,    7.1,   10.4,   11.6,   11.2,   13.0,   15.0,   15.7,   14.9,   15.1,   16.1,   18.5,   22.4,   24.5,   25.7,   29.4,  999.0,  999.0,  999.0,  999.0,  999.0,  999.0,  999.0,  999.0,  999.0,  999.0,  999.0,  999.0,  999.0,  999.0,  999.0,  999.0,  999.0,  999.0,  999.0,  999.0,  999.0,  999.0,  999.0,  999.0,  999.0
2000/04/15 19:00,    0.1,  999.0,  999.0,  999.0,  999.0,  999.0,    6.7,   10.2,   11.1,   11.1,   13.5,   15.2,   15.0,   14.7,  999.0,  999.0,   18.5,   21.5,   24.0,   27.5,   31.1,   34.9,  999.0,  999.0,  999.0,  999.0,  999.0,  999.0,  999.0,  999.0,  999.0,  999.0,  999.0,  999.0,  999.0,  999.0,  999.0,  999.0,  999.0,  999.0,  999.0,  999.0,  999.0,  999.0,  999.0,  999.0
2000/04/15 19:10,   -0.8,   -2.3,  999.0,  999.0,   -0.5,    2.4,    6.9,   10.2,  999.0,  999.0,   13.3,   14.7,   15.2,   14.9,   15.2,   18.2,   19.9,   21.3,   23.8,   26.7,   31.0,   35.9,  999.0,  999.0,  999.0,  999.0,  999.0,  999.0,  999.0,  999.0,  999.0,  999.0,  999.0,  999.0,  999.0,  999.0,  999.0,  999.0,  999.0,  999.0,  999.0,  999.0,  999.0,  999.0,  999.0,  999.0
2000/04/15 19:20,   -1.0,   -1.1,   -0.3,   -0.6,   -0.1,  999.0,    5.0,  999.0,   11.6,   11.7,   14.5,   14.6,   14.8,   15.8,   18.4,   21.3,   21.6,   22.4,   23.2,   28.6,   32.5,   35.8,   37.8,   41.5,  999.0,  999.0,  999.0,  999.0,  999.0,  999.0,  999.0,  999.0,  999.0,  999.0,  999.0,  999.0,  999.0,  999.0,  999.0,  999.0,  999.0,  999.0,  999.0,  999.0,  999.0,  999.0
2000/04/15 19:30,   -0.9,   -1.0,   -0.4,   -0.6,  999.0,  999.0,    4.1,    9.0,   11.4,   13.0,   14.0,   14.9,   15.3,   17.2,   17.3,   19.1,   21.2,   22.1,   23.9,   29.0,   33.4,  999.0,  999.0,  999.0,  999.0,  999.0,  999.0,  999.0,  999.0,  999.0,  999.0,  999.0,  999.0,  999.0,  999.0,  999.0,  999.0,  999.0,  999.0,  999.0,  999.0,  999.0,  999.0,  999.0,  999.0,  999.0
2000/04/15 19:40,  999.0,   -1.0,    0.2,    0.2,    0.9,    1.3,  999.0,    8.3,  999.0,   12.0,   14.5,   14.6,   15.4,   18.7,   20.3,   19.6,   20.4,   20.7,   22.8,   27.6,   33.8,   36.8,   40.8,  999.0,  999.0,  999.0,  999.0,  999.0,  999.0,  999.0,  999.0,  999.0,  999.0,  999.0,  999.0,  999.0,  999.0,  999.0,  999.0,  999.0,  999.0,  999.0,  999.0,  999.0,  999.0,  999.0
2000/04/15 19:50,   -1.0,   -0.4,    0.5,    0.4,    0.6,  999.0,    4.0,    7.5,    9.8,   10.7,   12.1,   13.4,   16.3,   19.2,   20.5,   20.8,   21.2,   21.5,   23.4,  999.0,   31.9,   36.9,  999.0,  999.0,  999.0,  999.0,  999.0,  999.0,  999.0,  999.0,  999.0,  999.0,  999.0,  999.0,  999.0,  999.0,  999.0,  999.0,  999.0,  999.0,  999.0,  999.0,  999.0,  999.0,  999.0,  999.0
2000/04/15 20:00,  999.0,   -0.4,    1.0,    0.6,  999.0,  999.0,  999.0,    6.8,  999.0,   11.0,   11.8,   13.3,   14.6,   17.4,   20.1,   21.3,   21.1,   22.7,   25.2,  999.0,  999.0,   37.3,   39.6,  999.0,  999.0,  999.0,  999.0,  999.0,  999.0,  999.0,  999.0,  999.0,  999.0,  999.0,  999.0,  999.0,  999.0,  999.0,  999.0,  999.0,  999.0,  999.0,  999.0,  999.0,  999.0,  999.0
2000/04/15 20:10,  999.0,  999.0,  999.0,  999.0,  999.0,  999.0,    2.1,    5.5,    9.3,   13.1,   14.3,   12.3,   14.2,   17.1,   19.5,   20.9,   20.6,   21.6,  999.0,  999.0,  999.0,   36.0,   38.5,  999.0,  999.0,  999.0,  999.0,  999.0,  999.0,  999.0,  999.0,  999.0,  999.0,  999.0,  999.0,  999.0,  999.0,  999.0,  999.0,  999.0,  999.0,  999.0,  999.0,  999.0,  999.0,  999.0
2000/04/15 20:20,  999.0,  999.0,  999.0,  999.0,    3.1,  999.0,  999.0,    4.8,    8.3,   11.0,   12.0,   12.4,   13.4,   17.4,   19.8,   19.4,   20.3,   21.9,   25.8,   28.8,   32.9,   35.6,   38.8,  999.0,  999.0,  999.0,  999.0,  999.0,  999.0,  999.0,  999.0,  999.0,  999.0,  999.0,  999.0,  999.0,  999.0,  999.0,  999.0,  999.0,  999.0,  999.0,  999.0,  999.0,  999.0,  999.0
2000/04/15 20:30,    0.2,    1.5,    2.0,    2.9,    3.3,    2.3,  999.0,    4.6,    7.7,   10.2,  999.0,   12.2,   12.7,   16.7,   17.7,   18.2,   18.9,   21.9,   25.4,  999.0,  999.0,  999.0,   38.8,   39.5,  999.0,  999.0,  999.0,  999.0,  999.0,  999.0,  999.0,  999.0,  999.0,  999.0,  999.0,  999.0,  999.0,  999.0,  999.0,  999.0,  999.0,  999.0,  999.0,  999.0,  999.0,  999.0
2000/04/15 20:40,  999.0,  999.0,  999.0,  999.0,  999.0,  999.0,  999.0,  999.0,  999.0,  999.0,   11.3,   13.1,   12.4,   16.3,   18.2,   19.0,   18.7,   21.4,  999.0,  999.0,  999.0,  999.0,  999.0,  999.0,  999.0,  999.0,  999.0,  999.0,  999.0,  999.0,  999.0,  999.0,  999.0,  999.0,  999.0,  999.0,  999.0,  999.0,  999.0,  999.0,  999.0,  999.0,  999.0,  999.0,  999.0,  999.0
2000/04/15 20:50,  999.0,  999.0,  999.0,  999.0,  999.0,  999.0,    3.2,    3.6,    6.0,    9.4,   12.1,   13.3,   13.2,   15.7,   18.4,   19.1,   19.7,   20.6,   23.4,  999.0,  999.0,  999.0,  999.0,  999.0,  999.0,  999.0,  999.0,  999.0,  999.0,  999.0,  999.0,  999.0,  999.0,  999.0,  999.0,  999.0,  999.0,  999.0,  999.0,  999.0,  999.0,  999.0,  999.0,  999.0,  999.0,  999.0
2000/04/15 21:00,  999.0,  999.0,  999.0,  999.0,    4.0,    2.6,    3.9,  999.0,    6.7,    9.2,   12.0,   12.9,   13.5,   15.9,   18.1,   19.6,   19.5,   19.9,   24.4,  999.0,  999.0,  999.0,  999.0,  999.0,  999.0,  999.0,  999.0,  999.0,  999.0,  999.0,  999.0,  999.0,  999.0,  999.0,  999.0,  999.0,  999.0,  999.0,  999.0,  999.0,  999.0,  999.0,  999.0,  999.0,  999.0,  999.0
2000/04/15 21:10,  999.0,    0.7,    1.2,    3.1,    3.1,    3.4,  999.0,  999.0,    8.2,   10.8,   13.3,   14.0,   15.3,   17.7,   18.7,   18.5,   18.5,   20.4,   23.3,   28.6,   32.5,  999.0,  999.0,  999.0,  999.0,  999.0,  999.0,  999.0,  999.0,  999.0,  999.0,  999.0,  999.0,  999.0,  999.0,  999.0,  999.0,  999.0,  999.0,  999.0,  999.0,  999.0,  999.0,  999.0,  999.0,  999.0
2000/04/15 21:20,    2.8,    1.8,    1.6,    5.6,    4.6,    5.2,    5.1,  999.0,  999.0,  999.0,   13.0,   13.2,   13.7,   15.9,   20.4,   19.6,   19.5,   20.0,   20.3,   23.2,   26.7,  999.0,  999.0,  999.0,  999.0,  999.0,  999.0,  999.0,  999.0,  999.0,  999.0,  999.0,  999.0,  999.0,  999.0,  999.0,  999.0,  999.0,  999.0,  999.0,  999.0,  999.0,  999.0,  999.0,  999.0,  999.0
2000/04/15 21:30,    3.0,  999.0,    2.0,    4.3,    4.8,    6.7,  999.0,  999.0,  999.0,   11.2,   13.7,  999.0,   14.1,   14.2,   16.0,   16.9,   19.7,   20.2,   19.8,   21.6,   23.6,  999.0,  999.0,  999.0,  999.0,  999.0,  999.0,  999.0,  999.0,  999.0,  999.0,  999.0,  999.0,  999.0,  999.0,  999.0,  999.0,  999.0,  999.0,  999.0,  999.0,  999.0,  999.0,  999.0,  999.0,  999.0
2000/04/15 21:40,    3.3,    2.5,    2.9,    3.1,    3.8,  999.0,  999.0,  999.0,  999.0,   10.9,   13.7,   15.9,   17.1,   17.4,   17.6,   15.8,  999.0,   18.3,   18.9,   20.8,   25.2,  999.0,  999.0,  999.0,  999.0,  999.0,  999.0,  999.0,  999.0,  999.0,  999.0,  999.0,  999.0,  999.0,  999.0,  999.0,  999.0,  999.0,  999.0,  999.0,  999.0,  999.0,  999.0,  999.0,  999.0,  999.0
2000/04/15 21:50,    2.8,    1.4,    0.9,    3.2,    4.4,    6.0,    7.5,    5.9,    8.3,   10.7,   14.9,   16.9,   19.7,   19.6,   18.2,   17.2,   17.7,   18.3,   19.6,   22.4,   28.0,   32.0,  999.0,  999.0,  999.0,  999.0,  999.0,  999.0,  999.0,  999.0,  999.0,  999.0,  999.0,  999.0,  999.0,  999.0,  999.0,  999.0,  999.0,  999.0,  999.0,  999.0,  999.0,  999.0,  999.0,  999.0
2000/04/15 22:00,    3.2,    2.1,    1.5,    2.7,    5.4,    6.6,  999.0,  999.0,    9.0,   11.2,   14.4,   17.3,   18.7,   17.0,   17.5,   18.2,   18.7,   18.6,   20.9,   25.4,   29.4,  999.0,  999.0,  999.0,  999.0,  999.0,  999.0,  999.0,  999.0,  999.0,  999.0,  999.0,  999.0,  999.0,  999.0,  999.0,  999.0,  999.0,  999.0,  999.0,  999.0,  999.0,  999.0,  999.0,  999.0,  999.0
2000/04/15 22:10,    4.0,    3.1,    3.2,    1.8,    5.1,    6.9,    8.5,    7.5,    8.9,   11.0,   13.2,   17.0,   18.4,   18.7,   17.9,   19.7,   20.2,   20.0,   21.5,   24.5,   28.7,  999.0,  999.0,  999.0,  999.0,  999.0,  999.0,  999.0,  999.0,  999.0,  999.0,  999.0,  999.0,  999.0,  999.0,  999.0,  999.0,  999.0,  999.0,  999.0,  999.0,  999.0,  999.0,  999.0,  999.0,  999.0
2000/04/15 22:20,    4.0,    2.8,    2.5,    2.7,    5.1,    6.8,    9.1,    8.8,   10.1,   11.7,   12.7,   15.3,   17.4,   18.0,   19.3,   19.8,   19.6,   19.3,   21.3,   24.2,   28.8,  999.0,  999.0,  999.0,  999.0,  999.0,  999.0,  999.0,  999.0,  999.0,  999.0,  999.0,  999.0,  999.0,  999.0,  999.0,  999.0,  999.0,  999.0,  999.0,  999.0,  999.0,  999.0,  999.0,  999.0,  999.0
2000/04/15 22:30,    3.8,  999.0,    2.9,    2.9,    5.4,    6.3,    7.3,    9.7,  999.0,  999.0,   13.9,   13.8,   16.6,   16.9,   17.7,   17.4,   17.2,   19.1,   20.9,   24.8,   27.2,  999.0,  999.0,  999.0,  999.0,  999.0,  999.0,  999.0,  999.0,  999.0,  999.0,  999.0,  999.0,  999.0,  999.0,  999.0,  999.0,  999.0,  999.0,  999.0,  999.0,  999.0,  999.0,  999.0,  999.0,  999.0
2000/04/15 22:40,    3.2,    2.3,    3.1,    3.3,    6.4,    6.5,    9.5,    9.0,    9.8,   11.3,   12.7,   14.3,   15.8,   16.5,   17.0,   19.4,   18.7,   18.7,   21.1,   25.2,  999.0,  999.0,  999.0,  999.0,  999.0,  999.0,  999.0,  999.0,  999.0,  999.0,  999.0,  999.0,  999.0,  999.0,  999.0,  999.0,  999.0,  999.0,  999.0,  999.0,  999.0,  999.0,  999.0,  999.0,  999.0,  999.0
2000/04/15 22:50,  999.0,  999.0,  999.0,  999.0,    6.0,    6.8,  999.0,  999.0,  999.0,  999.0,   12.7,   14.8,   16.2,   16.4,   16.6,   19.2,   18.6,   17.4,   21.5,   25.2,   30.1,  999.0,   41.4,  999.0,  999.0,  999.0,  999.0,  999.0,  999.0,  999.0,  999.0,  999.0,  999.0,  999.0,  999.0,  999.0,  999.0,  999.0,  999.0,  999.0,  999.0,  999.0,  999.0,  999.0,  999.0,  999.0
2000/04/15 23:00,    3.5,    2.5,    3.3,    5.0,    6.4,  999.0,  999.0,  999.0,  999.0,   10.8,   12.8,   16.2,   16.9,   17.5,   16.7,   18.2,   18.4,   19.2,  999.0,  999.0,  999.0,  999.0,  999.0,  999.0,  999.0,  999.0,  999.0,  999.0,  999.0,  999.0,  999.0,  999.0,  999.0,  999.0,  999.0,  999.0,  999.0,  999.0,  999.0,  999.0,  999.0,  999.0,  999.0,  999.0,  999.0,  999.0
2000/04/15 23:10,    2.0,  999.0,    3.8,  999.0,    6.6,    7.3,    8.2,    9.6,   10.8,   10.8,   13.7,   16.4,   18.0,   17.6,   16.9,   17.0,   17.0,   17.2,   21.5,  999.0,  999.0,  999.0,  999.0,  999.0,  999.0,  999.0,  999.0,  999.0,  999.0,  999.0,  999.0,  999.0,  999.0,  999.0,  999.0,  999.0,  999.0,  999.0,  999.0,  999.0,  999.0,  999.0,  999.0,  999.0,  999.0,  999.0
2000/04/15 23:20,    2.8,    0.3,    2.4,    5.7,    6.1,    7.1,   10.3,   11.0,   11.2,   11.3,   14.5,   17.4,   17.4,   18.4,   18.1,   17.5,   17.1,   18.3,   22.7,  999.0,  999.0,  999.0,  999.0,  999.0,  999.0,  999.0,  999.0,  999.0,  999.0,  999.0,  999.0,  999.0,  999.0,  999.0,  999.0,  999.0,  999.0,  999.0,  999.0,  999.0,  999.0,  999.0,  999.0,  999.0,  999.0,  999.0
2000/04/15 23:30,  999.0,    1.2,    4.7,    5.5,    6.4,  999.0,    7.6,    9.8,  999.0,   11.4,   14.4,   16.5,   16.8,   16.9,   17.7,   17.1,   17.3,   19.6,   22.8,  999.0,  999.0,  999.0,  999.0,  999.0,  999.0,  999.0,  999.0,  999.0,  999.0,  999.0,  999.0,  999.0,  999.0,  999.0,  999.0,  999.0,  999.0,  999.0,  999.0,  999.0,  999.0,  999.0,  999.0,  999.0,  999.0,  999.0
2000/04/15 23:40,  999.0,  999.0,  999.0,  999.0,    5.9,    6.2,  999.0,  999.0,  999.0,   10.6,  999.0,   16.3,   16.1,   16.8,   17.9,   17.0,   16.9,   19.5,   22.7,   24.7,  999.0,  999.0,   37.9,  999.0,  999.0,  999.0,  999.0,  999.0,  999.0,  999.0,  999.0,  999.0,  999.0,  999.0,  999.0,  999.0,  999.0,  999.0,  999.0,  999.0,  999.0,  999.0,  999.0,  999.0,  999.0,  999.0
2000/04/15 23:50,  999.0,    3.6,    3.6,    6.9,    5.5,  999.0,  999.0,  999.0,  999.0,  999.0,   15.3,   16.5,   17.4,   16.8,   17.2,   17.3,   16.3,   19.2,   22.3,   26.6,  999.0,  999.0,  999.0,   38.9,  999.0,  999.0,  999.0,  999.0,  999.0,  999.0,  999.0,  999.0,  999.0,  999.0,  999.0,  999.0,  999.0,  999.0,  999.0,  999.0,  999.0,  999.0,  999.0,  999.0,  999.0,  999.0
